This is the latest recevied weather packets stored in our database for station/object KC1IUC-13. If no packets are shown the sender has not sent any weather packets the latest 10 day(s).
| Time | Temp. | Humidity | Pressure | Rain* | Wind** | Luminosity | Snow |
|---|---|---|---|---|---|---|---|
| 1777415223 | 16.67° C | 46% | 1014.2 hPa | 0 mm | - | 17 W/m² | - |
| 1777414683 | 17.22° C | 45% | 1014.2 hPa | 0 mm | - | 19 W/m² | - |
| 1777414143 | 17.22° C | 45% | 1014.2 hPa | 0 mm | - | 25 W/m² | - |
| 1777413603 | 17.78° C | 45% | 1014.2 hPa | 0 mm | - | 36 W/m² | - |
| 1777413243 | 17.78° C | 45% | 1013.8 hPa | 0 mm | - | 37 W/m² | - |
| 1777412703 | 17.78° C | 44% | 1014.5 hPa | 0 mm | - | 34 W/m² | - |
| 1777412163 | 17.78° C | 44% | 1014.2 hPa | 0 mm | - | 39 W/m² | - |
| 1777411623 | 18.33° C | 43% | 1014.5 hPa | 0 mm | - | 47 W/m² | - |
| 1777411083 | 18.33° C | 43% | 1014.2 hPa | 0 mm | - | 60 W/m² | - |
| 1777410543 | 18.33° C | 43% | 1014.5 hPa | 0 mm | - | 71 W/m² | - |
| 1777410003 | 18.89° C | 43% | 1014.9 hPa | 0 mm | - | 80 W/m² | - |
| 1777409643 | 18.89° C | 43% | 1014.5 hPa | 0 mm | - | 87 W/m² | - |
| 1777409103 | 18.89° C | 42% | 1014.5 hPa | 0 mm | - | 97 W/m² | - |
| 1777408563 | 20° C | 42% | 1014.5 hPa | 0 mm | - | 112 W/m² | - |
| 1777408023 | 20° C | 42% | 1014.9 hPa | 0 mm | - | 143 W/m² | - |
| 1777407483 | 20° C | 42% | 1014.9 hPa | 0 mm | - | 176 W/m² | - |
| 1777406943 | 20° C | 42% | 1015.2 hPa | 0 mm | - | 169 W/m² | - |
| 1777406403 | 20.56° C | 42% | 1015.2 hPa | 0 mm | - | 254 W/m² | - |
| 1777406043 | 20.56° C | 42% | 1014.9 hPa | 0 mm | - | 288 W/m² | - |
| 1777405503 | 21.11° C | 42% | 1015.5 hPa | 0 mm | - | 356 W/m² | - |
| 1777404963 | 21.11° C | 42% | 1015.5 hPa | 0 mm | - | 344 W/m² | - |
| 1777404423 | 21.11° C | 42% | 1015.5 hPa | 0 mm | - | 305 W/m² | - |
| 1777403883 | 21.67° C | 43% | 1015.5 hPa | 0 mm | - | 280 W/m² | - |
| 1777403343 | 21.67° C | 43% | 1015.9 hPa | 0 mm | - | 592 W/m² | - |
| 1777402803 | 21.67° C | 44% | 1015.9 hPa | 0 mm | - | 562 W/m² | - |
* Rain latest hour (hover to see other rain measurements)
** Current wind speed in m/s (hover to see current wind gust speed)